カタログに戻る

STARLINK-33933

運用中通信VLEO
NORAD 63784·PAYLOAD·🇺🇸 United States

打ち上げ May 2, 2025 から Cape Canaveral Space Force Station

Loading…

次のパス (今後24時間)

TLE

最新Source: CelesTrak SupGP

元期: Sep 15, 2026, 02:24 UTC

1 63784C 25091K   26258.10048611 -.00025840  00000+0 -93571-3 0  2585
2 63784  43.0003  55.8956 0001603 268.6737 318.1664 15.27598320    19

AllMySatでSTARLINK-33933をリアルタイム追跡

Download on the App Store